{"data":{"norad_id":68238,"epoch":"2026-09-20T01:08:48.897024Z","epoch_age_seconds":90646,"freshness":"FRESH","line1":"1 68238U 26054G   26263.04778816  .00017193  00000+0  51873-3 0  9991","line2":"2 68238  53.1565 103.7659 0001219  95.4736 264.6406 15.34405560 28890","mean_motion":15.3440556,"eccentricity":0.0001219,"inclination_deg":53.1565,"raan_deg":103.7659,"arg_perigee_deg":95.4736,"mean_anomaly_deg":264.6406,"bstar":0.00051873,"rev_number":2889,"period_min":93.847418019001,"perigee_km":461.85281835446,"apogee_km":463.52061117612,"semimajor_km":6840.8237147653,"source":"CELESTRAK","updated_at":"2026-09-20T09:00:43.840249Z"}}